Taiping Airport
ZYHB : now visible

Airfield :











YOU CAN JOIN US ON...

 
LOGIN :

Register | Disclaimer

   EN    FR    IT 

 









Legend :    VFR   Marginal VFR   IFR   Intensive IFR   Very Intensive IFR
Visi :
Ceiling :
>= 8 km
>= 3000ft
5 to 8 km
1000 to 3000 ft
1500m to 5 km
500 to 1000 ft
800 to 1500m
200 to 500 ft
< 800m
< 200 ft
Symbols :   Thunderstorms  Fog  Heavy snow  Heavy precipitations  Wind > 20 kt







- Airport Elevation : 457 ft
- IATA code : HRB


ZYHB - Taiping

CURRENT METAR :
  • 221800Z 24009G14MPS 6000 SCT026 18/08 Q1000 NOSIG

EXPIRED METARs :
  • 221700Z 24009G14MPS 4000 SA SCT026 19/08 Q1000 NOSIG
  • 221600Z 24010MPS 3000 DU SCT026 19/09 Q1000 NOSIG

TAF TAF ZYHB
Valid from the 22 at 18:00 until the 23 at 18:00 UTC


221502Z 2218/2318 24006G12MPS 6000 BKN030 TX19/2306Z TN12/2221Z
TEMPO 2218/2224 2500 -SHRA FEW023CB BKN026
ZYSH FIR / Asia



MET'MAP, your aeronautical weather chart ! - Copyright ORBIFLY December 2007 - Disclaimer

ORBIFLY MET'MAP TEAM :

Programming & Development : Alexandra Zaïnal
Concept & Development : Baudouin d'Aumeries
Co-Development & Prog : Marc-Olivier Méhu
Technical & hardware support : Manuel Goepfert

Contact : metmap@orbifly.com




SOURCES & CREDITS :

   NOAA       Earth
Advisory